Wetterdaten: aktuell Sonntag, 02.04.2023 02:30
Datum Zeit Temp. A. Temp. A. min Temp. A. max Feuchte A. Luftdruck Regen Wind Richtung Richtung Sonnenschein UV Solar Windben
02.04.2023 02:30 6,8 C 6,8 C 6,9 C 93 % 1010,2 hPa 0,0 l/m 12,9 km/h (3 Bft) NO 45 0 min 0,0 UV-I 0 W/m 25,7 km/h (4 Bft)
02.04.2023 02:25 6,9 C 6,9 C 7,0 C 93 % 1010,1 hPa 0,0 l/m 12,9 km/h (3 Bft) NO 45 0 min 0,0 UV-I 0 W/m 20,9 km/h (4 Bft)
02.04.2023 02:20 7,0 C 6,9 C 7,0 C 94 % 1010,0 hPa 0,0 l/m 12,9 km/h (3 Bft) NO 45 0 min 0,0 UV-I 0 W/m 22,5 km/h (4 Bft)
02.04.2023 02:15 6,9 C 6,9 C 7,0 C 93 % 1010,0 hPa 0,0 l/m 20,9 km/h (4 Bft) NO 45 0 min 0,0 UV-I 0 W/m 35,4 km/h (5 Bft)
02.04.2023 02:10 7,0 C 6,9 C 7,1 C 94 % 1009,8 hPa 0,0 l/m 20,9 km/h (4 Bft) N-NO 22 0 min 0,0 UV-I 0 W/m 38,6 km/h (6 Bft)
02.04.2023 02:05 7,1 C 7,1 C 7,2 C 93 % 1009,8 hPa 0,0 l/m 17,7 km/h (3 Bft) NO 45 0 min 0,0 UV-I 0 W/m 30,6 km/h (5 Bft)
02.04.2023 02:00 7,2 C 7,2 C 7,2 C 93 % 1009,7 hPa 0,0 l/m 14,5 km/h (3 Bft) NO 45 0 min 0,0 UV-I 0 W/m 30,6 km/h (5 Bft)
02.04.2023 01:55 7,2 C 7,2 C 7,3 C 93 % 1009,5 hPa 0,0 l/m 16,1 km/h (3 Bft) NO 45 0 min 0,0 UV-I 0 W/m 33,8 km/h (5 Bft)
02.04.2023 01:50 7,3 C 7,3 C 7,4 C 93 % 1009,4 hPa 0,0 l/m 11,3 km/h (2 Bft) NO 45 0 min 0,0 UV-I 0 W/m 20,9 km/h (4 Bft)
02.04.2023 01:45 7,4 C 7,4 C 7,4 C 93 % 1009,2 hPa 0,0 l/m 14,5 km/h (3 Bft) N-NO 22 0 min 0,0 UV-I 0 W/m 25,7 km/h (4 Bft)
02.04.2023 01:40 7,5 C 7,4 C 7,5 C 93 % 1009,1 hPa 0,0 l/m 12,9 km/h (3 Bft) N-NO 22 0 min 0,0 UV-I 0 W/m 22,5 km/h (4 Bft)
02.04.2023 01:35 7,4 C 7,4 C 7,4 C 93 % 1009,1 hPa 0,0 l/m 11,3 km/h (2 Bft) NO 45 0 min 0,0 UV-I 0 W/m 17,7 km/h (3 Bft)
02.04.2023 01:30 7,4 C 7,4 C 7,4 C 93 % 1008,9 hPa 0,0 l/m 19,3 km/h (3 Bft) NO 45 0 min 0,0 UV-I 0 W/m 35,4 km/h (5 Bft)
02.04.2023 01:25 7,4 C 7,4 C 7,5 C 93 % 1008,8 hPa 0,0 l/m 22,5 km/h (4 Bft) NO 45 0 min 0,0 UV-I 0 W/m 33,8 km/h (5 Bft)
02.04.2023 01:20 7,5 C 7,5 C 7,7 C 93 % 1008,7 hPa 0,0 l/m 20,9 km/h (4 Bft) NO 45 0 min 0,0 UV-I 0 W/m 35,4 km/h (5 Bft)
02.04.2023 01:15 7,7 C 7,7 C 7,7 C 94 % 1008,7 hPa 0,0 l/m 16,1 km/h (3 Bft) NO 45 0 min 0,0 UV-I 0 W/m 32,2 km/h (5 Bft)
02.04.2023 01:10 7,7 C 7,7 C 7,8 C 94 % 1008,6 hPa 0,0 l/m 14,5 km/h (3 Bft) NO 45 0 min 0,0 UV-I 0 W/m 30,6 km/h (5 Bft)
02.04.2023 01:05 7,7 C 7,7 C 7,8 C 94 % 1008,5 hPa 0,0 l/m 16,1 km/h (3 Bft) N-NO 22 0 min 0,0 UV-I 0 W/m 29,0 km/h (5 Bft)
02.04.2023 01:00 7,7 C 7,7 C 7,8 C 94 % 1008,4 hPa 0,0 l/m 17,7 km/h (3 Bft) NO 45 0 min 0,0 UV-I 0 W/m 32,2 km/h (5 Bft)
02.04.2023 00:55 7,8 C 7,7 C 7,9 C 94 % 1008,3 hPa 0,0 l/m 20,9 km/h (4 Bft) NO 45 0 min 0,0 UV-I 0 W/m 48,3 km/h (6 Bft)
02.04.2023 00:50 7,8 C 7,8 C 7,9 C 94 % 1008,2 hPa 0,0 l/m 12,9 km/h (3 Bft) N-NO 22 0 min 0,0 UV-I 0 W/m 30,6 km/h (5 Bft)
02.04.2023 00:45 7,9 C 7,9 C 7,9 C 94 % 1008,1 hPa 0,2 l/m 12,9 km/h (3 Bft) N-NO 22 0 min 0,0 UV-I 0 W/m 20,9 km/h (4 Bft)
02.04.2023 00:40 7,9 C 7,9 C 8,1 C 94 % 1008,1 hPa 0,0 l/m 14,5 km/h (3 Bft) N-NO 22 0 min 0,0 UV-I 0 W/m 25,7 km/h (4 Bft)
02.04.2023 00:35 8,0 C 8,0 C 8,2 C 94 % 1008,0 hPa 0,0 l/m 14,5 km/h (3 Bft) N-NO 22 0 min 0,0 UV-I 0 W/m 25,7 km/h (4 Bft)
02.04.2023 00:30 8,1 C 8,1 C 8,2 C 94 % 1007,9 hPa 0,0 l/m 12,9 km/h (3 Bft) N-NO 22 0 min 0,0 UV-I 0 W/m 25,7 km/h (4 Bft)
02.04.2023 00:25 8,2 C 8,2 C 8,2 C 94 % 1007,8 hPa 0,0 l/m 14,5 km/h (3 Bft) N-NO 22 0 min 0,0 UV-I 0 W/m 25,7 km/h (4 Bft)
02.04.2023 00:20 8,3 C 8,2 C 8,3 C 94 % 1007,7 hPa 0,0 l/m 14,5 km/h (3 Bft) N-NO 22 0 min 0,0 UV-I 0 W/m 22,5 km/h (4 Bft)
02.04.2023 00:15 8,3 C 8,3 C 8,4 C 94 % 1007,6 hPa 0,0 l/m 14,5 km/h (3 Bft) N-NO 22 0 min 0,0 UV-I 0 W/m 25,7 km/h (4 Bft)
02.04.2023 00:10 8,4 C 8,3 C 8,4 C 94 % 1007,5 hPa 0,0 l/m 14,5 km/h (3 Bft) N-NO 22 0 min 0,0 UV-I 0 W/m 27,4 km/h (5 Bft)
02.04.2023 00:05 8,4 C 8,4 C 8,5 C 94 % 1007,3 hPa 0,0 l/m 14,5 km/h (3 Bft) N-NO 22 0 min 0,0 UV-I 0 W/m 27,4 km/h (5 Bft)
02.04.2023 00:00 8,5 C 8,5 C 8,6 C 93 % 1007,3 hPa 0,0 l/m 14,5 km/h (3 Bft) N-NO 22 0 min 0,0 UV-I 0 W/m 22,5 km/h (4 Bft)
_ Min-Zeit 02:30 02:30 02:30 00:00 00:00 - 01:35 - - - - - 01:35
Minimum _ 6,8 C 6,8 C 6,9 C 93 % 1007,3 hPa - 11,3 km/h (2 Bft) - - - - - 17,7 km/h (3 Bft)
_ Max-Zeit 00:00 00:00 00:00 00:05 02:30 00:45 01:25 - - 00:00 00:00 00:00 00:55
Maximum _ 8,6 C 8,5 C 8,6 C 94 % 1010,2 hPa 0,2 l/m 22,5 km/h
NO (4 Bft)
- - 0 min 0,0 UV-I 0 W/m 48,3 km/h
NO (6 Bft)
Durchschnitt _ 7,6 C 7,6 C 7,7 C 94 % 1008,7 hPa #0,2 l/m 15,6 km/h (3 Bft) NO - #0 min. 0,0 UV-I 0 W/m 28,6 km/h (5 Bft)